Weather in Belyj Klyuch

Russia / Ulyanovsk Oblast     54°13′15″N   48°17′41″E
temp.,
°C
wind,
m/s
gust,
m/s
humid.,
%
clouds,
%
prec.,
mm/h
press.,
hPa
HPBL,
m
5 march, fri
fri501:00−4w3387100 0.1 99948
04:00−4wnw1293100 0.2 100021
07:00−5wnw1197100 0.6 100021
10:00−4n3596100 1.8 1001325
13:00−4nnw3592100 0.6 1003421
16:00−5nw258792 0.6 1006302
19:00−8w339028 0.0 100927
22:00−10wsw349214 0.0 101153
6 march, sat
sat601:00−11wsw479327 0.0 1011115
04:00−10wsw5109313 0.0 1013209
07:00−12w510920 0.0 1014212
10:00−11wnw59902 0.0 1015284
13:00−9nw478356 0.0 1015396
16:00−9nw138578 0.0 1014282
19:00−13sw1188100 0.0 101421
22:00−15wsw228883 0.0 101420
7 march, sun
sun701:00−16wsw23860 0.0 101320
04:00−16wsw33910 0.0 101326
07:00−15w369490 0.0 1012100
10:00−12w489248 0.0 1012267
13:00−8wsw47840 0.0 1010612
16:00−6sw598338 0.0 1008993
19:00−7ssw61385100 0.0 1005721
22:00−7ssw81592100 0.1 1002889
8 march, mon
mon801:00−5ssw91592100 0.6 9971000
04:00−4wsw91491100 1.6 996986
07:00−9w7158367 0.2 999502
10:00−8sw7148233 0.2 1001494
13:00−5sw8137675 0.0 10011006
16:00−3ssw7117752 0.0 9991128
19:00−6s5119262 0.1 997335
22:00−8w7138379 1.1 998749
9 march, tue
tue901:00−10w9178590 0.1 1000674
04:00−11w8158688 0.2 1004611
07:00−13w6139076 0.0 1007428
10:00−13w5109078 0.0 1009400
13:00−11w479096 0.1 1011455
16:00−10w468898 0.1 1011541
19:00−14wnw3493100 0.0 101268
22:00−16wnw359497 0.0 1013101